Погода в Казак-Кочердыке

Россия / Курганская область     54°21′41″N   64°14′17″E
темп.,
°C
ветер,
м/с
пор.,
м/с
влажн.,
%
обл.,
%
осадки,
мм/ч
давл.,
гПа
погр.,
м
8 марта, пн
пн823:00−9зсз51093100 1.0 1004307
02:00−13зсз5119467 0.0 1008239
05:00−17з589444 0.0 1011136
08:00−20з46930 0.0 101288
11:00−14юз588727 0.0 1013251
14:00−11ююз71284100 0.0 1013449
17:00−9ююз81589100 0.1 1012914
20:00−7юз91690100 0.4 1011908
9 марта, вт
вт923:00−6юз91785100 0.4 1011762
02:00−6юз81786100 0.0 1011591
05:00−6юз81588100 0.0 1011528
08:00−7ююз91590100 0.3 1010621
11:00−7юз91686100 0.3 1009676
14:00−5юз91487100 0.0 1010832
17:00−4юз71387100 0.0 1011644
20:00−8юз479298 0.0 1013123
10 марта, ср
ср1023:00−9зюз238999 0.0 101423
02:00−10юв2290100 0.0 101221
05:00−10юв3496100 0.0 101074
08:00−10вюв3697100 0.1 1007155
11:00−6юв4695100 0.5 1005329
14:00−5юв4695100 0.7 1002402
17:00−4юв4696100 1.6 1000392
20:00−4юз51095100 1.4 1000563
11 марта, чт
чт1123:00−11юз6138778 1.6 1000301
02:00−14юз511880 0.0 1001271
05:00−17ююз512900 0.0 1002296
08:00−19ююз4119255 0.0 1003290
11:00−17юз479275 0.1 1005398
14:00−15зюз2386100 0.1 1006547
17:00−14зсз4793100 0.2 1007589
20:00−16сз51194100 0.2 1010510
12 марта, пт
пт1223:00−19зсз489492 0.2 1012156
02:00−18зсз4896100 0.1 1014196
05:00−20з4598100 0.1 1016122
08:00−23з469599 0.0 1018115
11:00−18зсз3493100 0.1 1020258
14:00−16з248557 0.0 1022410
17:00−15юз239161 0.0 102339
20:00−16юз479190 0.0 1024123